Home > Time Zones > World Clock > Weather > France > Metz > Past weeks

Flag for France Weather past 2 weeks in Metz, France

Now
39 °F

Mostly cloudy.


Feels Like: 30 °F
Forecast: 37 / 47 °F
Wind: 17 mph from West

Location: Metz-Nancy-Lorraine

Current Time: Apr 1, 2015 at 7:09:20 AM

Latest Report: Apr 1, 2015 at 6:30 AM


Visibility: N/A

Pressure: 30.09 "Hg

Humidity: 81%

Dew point: 34 °F

Location of MetzLocation

Historic Weather in Metz — Graph

°F

Metz temperature yesterday

Maximum temperature yesterday: 54 °F (at 5:30 AM)
Minimum temperature yesterday: 46 °F (at 12:00 AM)
Average temperature yesterday: 50 °F

Past Weeks' High & Low Weather Summary

 TemperatureHumidityPressure
High64 °F (Mar 18, 2:30 PM)100% (Mar 20, 5:00 AM)30.30 "Hg (Mar 20, 5:00 AM)
Low28 °F (Mar 23, 5:00 AM)36% (Mar 20, 4:30 PM)29.62 "Hg (Mar 24, 10:30 PM)
Average46 °F75%29.99 "Hg
* Reported Mar 17 5:00 AM — Apr 1 6:00 AM, Metz, Weather by CustomWeather, © 2015

Note: Actual official high and low records may vary slightly from our data, if they occured in-between our weather recording intervals... More about our weather records

Advertising

Metz weather history for previous 24 hours

 ConditionsComfort  
Time TempWeatherWind HumidityBarometerVisibility
6:00 AM
Wed, Apr 1
39 °FPartly cloudy.17 mph81%30.09 "HgN/A
5:30 AM39 °FPartly cloudy.17 mph81%30.09 "HgN/A
4:30 AM39 °FPassing clouds.15 mph81%30.07 "HgN/A
4:00 AM39 °FClear.14 mph81%30.07 "HgN/A
3:30 AM39 °FPartly cloudy.13 mph81%30.07 "HgN/A
3:00 AM37 °FLight rain. Fog.15 mph93%30.07 "Hg3 mi
2:30 AM39 °FMostly cloudy.10 mph87%30.04 "HgN/A
2:00 AM39 °FDrizzle. Mostly cloudy.13 mph87%30.04 "HgN/A
1:30 AM41 °FLight rain. Partly cloudy.25 mph76%30.04 "HgN/A
1:00 AM45 °FMostly cloudy.22 mph66%30.01 "HgN/A
12:30 AM46 °FMostly cloudy.26 mph62%30.01 "HgN/A
12:00 AM46 °FMostly cloudy.24 mph62%30.01 "HgN/A
11:30 PM
Tue, Mar 31
46 °FOvercast.28 mph53%29.98 "HgN/A
11:00 PM46 °FClear.25 mph57%29.98 "HgN/A
10:30 PM46 °FClear.25 mph57%29.98 "HgN/A
10:00 PM48 °FClear.23 mph54%29.98 "HgN/A
9:30 PM48 °FClear.25 mph54%29.95 "HgN/A
9:00 PM48 °FClear.21 mph58%29.95 "HgN/A
8:30 PM48 °FClear.20 mph62%29.95 "HgN/A
8:00 PM48 °FScattered clouds.21 mph66%29.95 "HgN/A
7:30 PM48 °FScattered clouds.20 mph71%29.92 "HgN/A
7:00 PM50 °FBroken clouds.23 mph67%29.92 "HgN/A
6:30 PM52 °FPartly sunny.24 mph62%29.89 "HgN/A
6:00 PM52 °FScattered clouds.23 mph58%29.89 "HgN/A
5:30 PM52 °FPassing clouds.26 mph62%29.86 "HgN/A
5:00 PM48 °FBroken clouds.28 mph76%29.86 "Hg6 mi
4:30 PM52 °FBroken clouds.29 mph62%29.86 "HgN/A
4:00 PM50 °FBroken clouds.23 mph71%29.86 "HgN/A
3:30 PM46 °FLight rain. Broken clouds.29 mph87%29.83 "HgN/A
3:00 PM52 °FBroken clouds.28 mph62%29.83 "Hg6 mi
2:30 PM48 °FBroken clouds.30 mph76%29.80 "Hg6 mi
2:00 PM52 °FBroken clouds.29 mph72%29.80 "HgN/A
1:30 PM48 °FBroken clouds.35 mph76%29.77 "Hg4 mi
1:00 PM52 °FBroken clouds.30 mph77%29.77 "Hg5 mi
12:30 PM50 °FLight rain. Partly sunny.36 mph82%29.74 "Hg4 mi
12:00 PM50 °FLight rain. Mostly cloudy.30 mph88%29.74 "Hg4 mi
11:30 AM50 °FLight rain. Partly sunny.35 mph82%29.71 "HgN/A
11:00 AM52 °FPartly sunny.36 mph77%29.71 "HgN/A
10:30 AM52 °FMostly cloudy.32 mph77%29.71 "HgN/A
10:00 AM52 °FMore clouds than sun.36 mph82%29.71 "HgN/A
9:30 AM50 °FDrizzle. Fog.28 mph88%29.68 "Hg3 mi
9:00 AM50 °FLight rain. Overcast.30 mph88%29.68 "Hg4 mi
8:30 AM52 °FMostly cloudy.31 mph82%29.65 "HgN/A
8:00 AM52 °FLight rain. Overcast.35 mph82%29.65 "HgN/A
7:30 AM52 °FMostly cloudy.35 mph77%29.62 "HgN/A
7:00 AM52 °FOvercast.36 mph82%29.62 "HgN/A
Weather by CustomWeather, © 2015

See weather overviewHow to use our weather pages